{"data":{"norad_id":64012,"epoch":"2026-05-25T02:17:10.523616Z","epoch_age_seconds":66170,"freshness":"FRESH","line1":"1 64012U 25101U   26145.09526069  .00021623  00000+0  79308-3 0  9990","line2":"2 64012  42.9982 286.1882 0000943 293.7335  66.3418 15.27576759 58748","mean_motion":15.27576759,"eccentricity":9.43e-5,"inclination_deg":42.9982,"raan_deg":286.1882,"arg_perigee_deg":293.7335,"mean_anomaly_deg":66.3418,"bstar":0.00079308,"rev_number":5874,"period_min":94.266948715734,"perigee_km":482.41179001274,"apogee_km":483.70581154077,"semimajor_km":6861.1958007768,"source":"CELESTRAK","updated_at":"2026-05-25T13:38:20.221562Z"}}